Time,TemperatureF,DewpointF,PressureIn,WindDirection,WindDirectionDegrees,WindSpeedMPH,WindSpeedGustMPH,Humidity,HourlyPrecipIn,Conditions,Clouds,dailyrainin,SoftwareType,DateUTC
2013-04-07 00:00:00,23.8,13.8,30.30,ENE,75,0.0,0.0,65,0.00,,CLR,0.00,VWS V12.08,2013-04-07 04:00:00,
2013-04-07 00:01:00,23.8,13.8,30.30,ENE,75,0.0,0.0,65,0.00,,CLR,0.00,VWS V12.08,2013-04-07 04:01:00,
2013-04-07 00:06:00,23.8,13.4,30.30,ENE,75,0.0,0.0,64,0.00,,CLR,0.00,VWS V12.08,2013-04-07 04:06:00,
2013-04-07 00:12:00,24.0,14.0,30.30,ENE,75,0.0,0.0,65,0.00,,CLR,0.00,VWS V12.08,2013-04-07 04:12:00,
2013-04-07 00:17:00,24.1,14.4,30.29,ENE,75,0.0,0.0,66,0.00,,CLR,0.00,VWS V12.08,2013-04-07 04:17:00,
2013-04-07 00:22:00,24.1,14.4,30.29,ENE,75,0.0,0.0,66,0.00,,CLR,0.00,VWS V12.08,2013-04-07 04:22:00,
2013-04-07 00:27:00,24.3,14.6,30.29,ENE,75,0.0,0.0,66,0.00,,CLR,0.00,VWS V12.08,2013-04-07 04:27:00,
2013-04-07 00:32:00,24.3,14.6,30.29,ENE,75,0.0,0.0,66,0.00,,CLR,0.00,VWS V12.08,2013-04-07 04:32:00,
2013-04-07 00:37:00,24.3,14.6,30.29,ENE,75,0.0,0.0,66,0.00,,CLR,0.00,VWS V12.08,2013-04-07 04:37:00,
2013-04-07 00:42:00,24.3,14.6,30.29,ENE,75,0.0,0.0,66,0.00,,OVC095,0.00,VWS V12.08,2013-04-07 04:42:00,
2013-04-07 00:47:00,24.3,14.2,30.29,ENE,75,0.0,0.0,65,0.00,,OVC095,0.00,VWS V12.08,2013-04-07 04:47:00,
2013-04-07 00:53:00,24.3,14.2,30.29,ENE,75,0.0,0.0,65,0.00,,OVC095,0.00,VWS V12.08,2013-04-07 04:53:00,
2013-04-07 00:58:00,24.1,14.1,30.29,ENE,75,0.0,0.0,65,0.00,,OVC095,0.00,VWS V12.08,2013-04-07 04:58:00,
2013-04-07 01:03:00,24.3,14.2,30.29,ENE,75,0.0,0.0,65,0.00,,OVC095,0.00,VWS V12.08,2013-04-07 05:03:00,
2013-04-07 01:08:00,24.3,14.2,30.29,ENE,75,0.0,0.0,65,0.00,,OVC095,0.00,VWS V12.08,2013-04-07 05:08:00,
2013-04-07 01:13:00,24.4,14.7,30.29,ENE,75,0.0,0.0,66,0.00,,OVC095,0.00,VWS V12.08,2013-04-07 05:13:00,
2013-04-07 01:18:00,24.4,14.7,30.29,ENE,75,0.0,0.0,66,0.00,,OVC095,0.00,VWS V12.08,2013-04-07 05:18:00,
2013-04-07 01:23:00,24.6,14.9,30.29,ENE,75,0.0,0.0,66,0.00,,OVC095,0.00,VWS V12.08,2013-04-07 05:23:00,
2013-04-07 01:28:00,24.6,14.9,30.28,ENE,75,0.0,0.0,66,0.00,,OVC095,0.00,VWS V12.08,2013-04-07 05:28:00,
2013-04-07 01:33:00,24.7,15.0,30.28,ENE,75,0.0,0.0,66,0.00,,OVC095,0.00,VWS V12.08,2013-04-07 05:33:00,
2013-04-07 01:38:00,24.9,14.8,30.28,ENE,75,0.0,0.0,65,0.00,,OVC095,0.00,VWS V12.08,2013-04-07 05:38:00,
2013-04-07 01:43:00,25.0,14.9,30.27,ENE,75,0.0,0.0,65,0.00,,BKN090,0.00,VWS V12.08,2013-04-07 05:43:00,
2013-04-07 01:48:00,25.0,14.9,30.27,ENE,75,0.0,0.0,65,0.00,,BKN090,0.00,VWS V12.08,2013-04-07 05:48:00,
2013-04-07 01:53:00,25.0,15.3,30.27,ENE,75,0.0,0.0,66,0.00,,BKN090,0.00,VWS V12.08,2013-04-07 05:53:00,
2013-04-07 01:59:00,25.0,14.2,30.26,ENE,75,0.0,0.0,63,0.00,,BKN090,0.00,VWS V12.08,2013-04-07 05:59:00,
2013-04-07 02:04:00,25.2,14.8,30.26,ENE,75,0.0,0.0,64,0.00,,BKN090,0.00,VWS V12.08,2013-04-07 06:04:00,
2013-04-07 02:09:00,25.2,14.8,30.26,ENE,75,0.0,0.0,64,0.00,,BKN090,0.00,VWS V12.08,2013-04-07 06:09:00,
2013-04-07 02:14:00,25.3,15.2,30.25,ENE,75,0.0,0.0,65,0.00,,BKN090,0.00,VWS V12.08,2013-04-07 06:14:00,
2013-04-07 02:19:00,25.3,15.2,30.25,ENE,75,0.0,0.0,65,0.00,,BKN090,0.00,VWS V12.08,2013-04-07 06:19:00,
2013-04-07 02:24:00,25.3,14.5,30.25,ENE,75,0.0,0.0,63,0.00,,BKN090,0.00,VWS V12.08,2013-04-07 06:24:00,
2013-04-07 02:30:00,25.5,14.3,30.24,ENE,75,0.0,0.0,62,0.00,,BKN090,0.00,VWS V12.08,2013-04-07 06:30:00,
2013-04-07 02:35:00,25.5,14.3,30.24,ENE,75,0.0,0.0,62,0.00,,BKN090,0.00,VWS V12.08,2013-04-07 06:35:00,
2013-04-07 02:40:00,25.5,13.9,30.24,ENE,75,0.0,0.0,61,0.00,,BKN090,0.00,VWS V12.08,2013-04-07 06:40:00,
2013-04-07 02:45:00,25.5,14.3,30.24,ENE,75,0.0,0.0,62,0.00,,OVC080,0.00,VWS V12.08,2013-04-07 06:45:00,
2013-04-07 02:50:00,25.5,14.3,30.24,ENE,75,0.0,0.0,62,0.00,,OVC080,0.00,VWS V12.08,2013-04-07 06:50:00,
2013-04-07 02:55:00,25.3,14.1,30.24,ENE,75,0.0,0.0,62,0.00,,OVC080,0.00,VWS V12.08,2013-04-07 06:55:00,
2013-04-07 03:00:00,25.2,14.4,30.23,ENE,75,0.0,0.0,63,0.00,,OVC080,0.00,VWS V12.08,2013-04-07 07:00:00,
2013-04-07 03:05:00,25.0,14.6,30.23,ENE,75,0.0,0.0,64,0.00,,OVC080,0.00,VWS V12.08,2013-04-07 07:05:00,
2013-04-07 03:10:00,24.9,14.8,30.23,ENE,75,0.0,0.0,65,0.00,,OVC080,0.00,VWS V12.08,2013-04-07 07:10:00,
2013-04-07 03:15:00,24.7,14.6,30.22,ENE,75,0.0,0.0,65,0.00,,OVC080,0.00,VWS V12.08,2013-04-07 07:15:00,
2013-04-07 03:20:00,24.4,14.7,30.22,ENE,75,0.0,0.0,66,0.00,,OVC080,0.00,VWS V12.08,2013-04-07 07:20:00,
2013-04-07 03:25:00,24.3,14.9,30.22,ENE,75,0.0,0.0,67,0.00,,OVC080,0.00,VWS V12.08,2013-04-07 07:25:00,
2013-04-07 03:30:00,24.1,14.7,30.23,ENE,75,0.0,0.0,67,0.00,,OVC080,0.00,VWS V12.08,2013-04-07 07:30:00,
2013-04-07 03:35:00,23.8,14.8,30.23,ENE,75,0.0,0.0,68,0.00,,OVC080,0.00,VWS V12.08,2013-04-07 07:35:00,
2013-04-07 03:41:00,23.7,14.4,30.23,ENE,75,0.0,0.0,67,0.00,,OVC070,0.00,VWS V12.08,2013-04-07 07:41:00,
2013-04-07 03:46:00,23.6,14.3,30.22,ENE,75,0.0,0.0,67,0.00,,OVC070,0.00,VWS V12.08,2013-04-07 07:46:00,
2013-04-07 03:51:00,23.4,14.4,30.22,ENE,75,0.0,0.0,68,0.00,,OVC070,0.00,VWS V12.08,2013-04-07 07:51:00,
2013-04-07 03:56:00,23.3,14.3,30.22,ENE,75,0.0,0.0,68,0.00,,OVC070,0.00,VWS V12.08,2013-04-07 07:56:00,
2013-04-07 04:01:00,23.3,14.3,30.22,ENE,75,0.0,0.0,68,0.00,,OVC070,0.00,VWS V12.08,2013-04-07 08:01:00,
2013-04-07 04:06:00,23.3,14.6,30.22,ENE,75,0.0,0.0,69,0.00,,OVC070,0.00,VWS V12.08,2013-04-07 08:06:00,
2013-04-07 04:12:00,23.3,14.6,30.22,ENE,75,0.0,0.0,69,0.00,,OVC070,0.00,VWS V12.08,2013-04-07 08:12:00,
2013-04-07 04:17:00,23.1,14.5,30.21,ENE,75,0.0,0.0,69,0.00,,OVC070,0.00,VWS V12.08,2013-04-07 08:17:00,
2013-04-07 04:22:00,23.1,14.5,30.21,ENE,75,0.0,0.0,69,0.00,,OVC070,0.00,VWS V12.08,2013-04-07 08:22:00,
2013-04-07 04:27:00,23.0,14.7,30.21,ENE,75,0.0,0.0,70,0.00,,OVC070,0.00,VWS V12.08,2013-04-07 08:27:00,
2013-04-07 04:32:00,23.0,15.0,30.21,ENE,75,0.0,0.0,71,0.00,,OVC070,0.00,VWS V12.08,2013-04-07 08:32:00,
2013-04-07 04:37:00,23.0,15.6,30.21,ENE,75,0.0,0.0,73,0.00,,OVC070,0.00,VWS V12.08,2013-04-07 08:37:00,
2013-04-07 04:42:00,23.0,15.3,30.21,ENE,75,0.0,0.0,72,0.00,,FEW110,0.00,VWS V12.08,2013-04-07 08:42:00,
2013-04-07 04:47:00,23.0,15.6,30.21,ENE,75,0.0,0.0,73,0.00,,FEW110,0.00,VWS V12.08,2013-04-07 08:47:00,
2013-04-07 04:52:00,23.0,15.6,30.21,ENE,75,0.0,0.0,73,0.00,,FEW110,0.00,VWS V12.08,2013-04-07 08:52:00,
2013-04-07 04:57:00,23.1,16.1,30.21,ENE,75,0.0,0.0,74,0.00,,FEW110,0.00,VWS V12.08,2013-04-07 08:57:00,
2013-04-07 05:02:00,23.1,15.8,30.20,ENE,75,0.0,0.0,73,0.00,,FEW110,0.00,VWS V12.08,2013-04-07 09:02:00,
2013-04-07 05:07:00,23.1,15.8,30.20,ENE,75,0.0,0.0,73,0.00,,FEW110,0.00,VWS V12.08,2013-04-07 09:07:00,
2013-04-07 05:12:00,23.1,16.1,30.20,ENE,75,0.0,0.0,74,0.00,,FEW110,0.00,VWS V12.08,2013-04-07 09:12:00,
2013-04-07 05:17:00,23.3,15.9,30.20,ENE,75,0.0,0.0,73,0.00,,FEW110,0.00,VWS V12.08,2013-04-07 09:17:00,
2013-04-07 05:22:00,23.3,15.9,30.20,ENE,75,0.0,0.0,73,0.00,,FEW110,0.00,VWS V12.08,2013-04-07 09:22:00,
2013-04-07 05:27:00,23.4,16.0,30.20,ENE,75,0.0,1.0,73,0.00,,FEW110,0.00,VWS V12.08,2013-04-07 09:27:00,
2013-04-07 05:32:00,23.4,16.4,30.20,ENE,75,0.0,2.0,74,0.00,,FEW110,0.00,VWS V12.08,2013-04-07 09:32:00,
2013-04-07 05:37:00,23.6,16.5,30.20,ENE,75,0.0,0.0,74,0.00,,FEW110,0.00,VWS V12.08,2013-04-07 09:37:00,
2013-04-07 05:42:00,23.6,16.5,30.20,ENE,75,0.0,0.0,74,0.00,,OVC070,0.00,VWS V12.08,2013-04-07 09:42:00,
2013-04-07 05:47:00,23.6,16.5,30.21,ENE,75,0.0,0.0,74,0.00,,OVC070,0.00,VWS V12.08,2013-04-07 09:47:00,
2013-04-07 05:52:00,23.7,16.3,30.21,ENE,75,0.0,0.0,73,0.00,,OVC070,0.00,VWS V12.08,2013-04-07 09:52:00,
2013-04-07 05:58:00,23.7,16.3,30.21,ENE,75,0.0,0.0,73,0.00,,OVC070,0.00,VWS V12.08,2013-04-07 09:58:00,
2013-04-07 06:03:00,23.8,16.7,30.21,ENE,75,0.0,0.0,74,0.00,,OVC070,0.00,VWS V12.08,2013-04-07 10:03:00,
2013-04-07 06:08:00,24.0,16.9,30.21,ENE,75,0.0,0.0,74,0.00,,OVC070,0.00,VWS V12.08,2013-04-07 10:08:00,
2013-04-07 06:13:00,24.1,16.7,30.21,ENE,75,0.0,0.0,73,0.00,,OVC070,0.00,VWS V12.08,2013-04-07 10:13:00,
2013-04-07 06:18:00,24.3,16.9,30.21,ENE,75,0.0,0.0,73,0.00,,OVC070,0.00,VWS V12.08,2013-04-07 10:18:00,
2013-04-07 06:23:00,24.4,17.3,30.21,ENE,75,0.0,0.0,74,0.00,,OVC070,0.00,VWS V12.08,2013-04-07 10:23:00,
2013-04-07 06:28:00,24.6,17.5,30.21,ENE,75,0.0,0.0,74,0.00,,OVC070,0.00,VWS V12.08,2013-04-07 10:28:00,
2013-04-07 06:33:00,24.6,17.2,30.21,ENE,75,0.0,0.0,73,0.00,,OVC070,0.00,VWS V12.08,2013-04-07 10:33:00,
2013-04-07 06:38:00,24.6,17.2,30.21,ENE,75,0.0,0.0,73,0.00,,OVC070,0.00,VWS V12.08,2013-04-07 10:38:00,
2013-04-07 06:43:00,24.7,17.6,30.22,ENE,75,0.0,0.0,74,0.00,,OVC075,0.00,VWS V12.08,2013-04-07 10:43:00,
2013-04-07 06:48:00,24.7,17.3,30.22,ENE,75,0.0,0.0,73,0.00,,OVC075,0.00,VWS V12.08,2013-04-07 10:48:00,
2013-04-07 06:53:00,24.9,17.5,30.22,ENE,75,0.0,0.0,73,0.00,,OVC075,0.00,VWS V12.08,2013-04-07 10:53:00,
2013-04-07 06:58:00,24.9,17.5,30.22,ENE,75,0.0,0.0,73,0.00,,OVC075,0.00,VWS V12.08,2013-04-07 10:58:00,
2013-04-07 07:03:00,25.0,17.6,30.22,ENE,75,0.0,0.0,73,0.00,,OVC075,0.00,VWS V12.08,2013-04-07 11:03:00,
2013-04-07 07:08:00,25.2,17.8,30.22,ENE,75,0.0,0.0,73,0.00,,OVC075,0.00,VWS V12.08,2013-04-07 11:08:00,
2013-04-07 07:13:00,25.3,17.5,30.22,ENE,75,0.0,0.0,72,0.00,,OVC075,0.00,VWS V12.08,2013-04-07 11:13:00,
2013-04-07 07:18:00,25.5,17.4,30.22,ENE,75,0.0,0.0,71,0.00,,OVC075,0.00,VWS V12.08,2013-04-07 11:18:00,
2013-04-07 07:23:00,25.6,17.5,30.22,ENE,75,0.0,0.0,71,0.00,,OVC075,0.00,VWS V12.08,2013-04-07 11:23:00,
2013-04-07 07:28:00,25.8,17.7,30.22,ENE,75,2.0,2.0,71,0.00,,OVC075,0.00,VWS V12.08,2013-04-07 11:28:00,
2013-04-07 07:33:00,25.9,17.8,30.22,ENE,75,0.0,1.0,71,0.00,,OVC075,0.00,VWS V12.08,2013-04-07 11:33:00,
2013-04-07 07:38:00,26.2,18.1,30.22,ENE,75,0.0,0.0,71,0.00,,OVC075,0.00,VWS V12.08,2013-04-07 11:38:00,
2013-04-07 07:44:00,26.4,18.0,30.21,ENE,75,0.0,2.0,70,0.00,,OVC065,0.00,VWS V12.08,2013-04-07 11:44:00,
2013-04-07 07:49:00,26.8,18.3,30.21,ENE,75,0.0,2.0,70,0.00,,OVC065,0.00,VWS V12.08,2013-04-07 11:49:00,
2013-04-07 07:54:00,27.0,18.2,30.21,ENE,75,0.0,0.0,69,0.00,,OVC065,0.00,VWS V12.08,2013-04-07 11:54:00,
2013-04-07 07:59:00,27.3,18.5,30.20,ENE,75,0.0,3.0,69,0.00,,OVC065,0.00,VWS V12.08,2013-04-07 11:59:00,
2013-04-07 08:04:00,27.4,18.9,30.20,ENE,75,0.0,3.0,70,0.00,,OVC065,0.00,VWS V12.08,2013-04-07 12:04:00,
2013-04-07 08:09:00,27.7,18.5,30.20,ENE,75,0.0,0.0,68,0.00,,OVC065,0.00,VWS V12.08,2013-04-07 12:09:00,
2013-04-07 08:14:00,28.0,18.8,30.19,ENE,75,0.0,0.0,68,0.00,,OVC065,0.00,VWS V12.08,2013-04-07 12:14:00,
2013-04-07 08:19:00,28.4,18.5,30.19,ENE,75,0.0,0.0,66,0.00,,OVC065,0.00,VWS V12.08,2013-04-07 12:19:00,
2013-04-07 08:26:00,28.7,18.4,30.19,ENE,75,0.0,0.0,65,0.00,,OVC065,0.00,VWS V12.08,2013-04-07 12:26:00,
2013-04-07 08:31:00,28.9,18.3,30.18,ENE,75,0.0,0.0,64,0.00,,OVC065,0.00,VWS V12.08,2013-04-07 12:31:00,
2013-04-07 08:36:00,29.2,18.2,30.18,ENE,75,2.0,2.0,63,0.00,,OVC065,0.00,VWS V12.08,2013-04-07 12:36:00,
2013-04-07 08:41:00,29.5,18.1,30.18,ENE,75,0.0,0.0,62,0.00,,OVC065,0.00,VWS V12.08,2013-04-07 12:41:00,
2013-04-07 08:46:00,29.8,18.8,30.17,ENE,75,0.0,0.0,63,0.00,,OVC065,0.00,VWS V12.08,2013-04-07 12:46:00,
2013-04-07 08:52:00,30.1,19.0,30.17,ENE,75,0.0,0.0,63,0.00,,OVC065,0.00,VWS V12.08,2013-04-07 12:52:00,
2013-04-07 08:57:00,30.7,20.0,30.17,ENE,75,0.0,0.0,64,0.00,,OVC065,0.00,VWS V12.08,2013-04-07 12:57:00,
2013-04-07 09:02:00,31.5,17.6,30.15,South,185,0.0,2.0,56,0.00,,OVC065,0.00,VWS V12.08,2013-04-07 13:02:00,
2013-04-07 09:07:00,33.0,17.3,30.15,NW,311,0.0,1.0,52,0.00,,OVC065,0.00,VWS V12.08,2013-04-07 13:07:00,
2013-04-07 09:12:00,34.3,14.1,30.15,SW,236,0.0,0.0,43,0.00,,OVC065,0.00,VWS V12.08,2013-04-07 13:12:00,
2013-04-07 09:17:00,35.9,10.3,30.13,WSW,256,5.0,11.0,34,0.00,,OVC065,0.00,VWS V12.08,2013-04-07 13:17:00,
2013-04-07 09:22:00,37.2,11.4,30.13,SSW,208,2.0,4.0,34,0.00,,OVC065,0.00,VWS V12.08,2013-04-07 13:22:00,
2013-04-07 09:27:00,38.2,10.2,30.13,South,181,1.0,12.0,31,0.00,,OVC065,0.00,VWS V12.08,2013-04-07 13:27:00,
2013-04-07 09:32:00,38.8,10.0,30.11,South,191,8.0,12.0,30,0.00,,OVC065,0.00,VWS V12.08,2013-04-07 13:32:00,
2013-04-07 09:37:00,38.9,10.9,30.11,SSW,212,4.0,6.0,31,0.00,,OVC065,0.00,VWS V12.08,2013-04-07 13:37:00,
2013-04-07 09:42:00,39.1,11.8,30.11,SSW,198,0.0,7.0,32,0.00,,OVC065,0.00,VWS V12.08,2013-04-07 13:42:00,
2013-04-07 09:47:00,39.5,12.8,30.10,WNW,285,0.0,1.0,33,0.00,,OVC065,0.00,VWS V12.08,2013-04-07 13:47:00,
2013-04-07 09:53:00,39.8,11.6,30.10,WSW,257,0.0,1.0,31,0.00,,OVC065,0.00,VWS V12.08,2013-04-07 13:53:00,
2013-04-07 09:58:00,40.2,12.7,30.10,SW,226,9.0,13.0,32,0.00,,OVC065,0.00,VWS V12.08,2013-04-07 13:58:00,
2013-04-07 10:03:00,40.6,13.8,30.10,South,191,4.0,8.0,33,0.00,,OVC065,0.00,VWS V12.08,2013-04-07 14:03:00,
2013-04-07 10:08:00,41.1,14.9,30.10,West,271,11.0,14.0,34,0.00,,OVC065,0.00,VWS V12.08,2013-04-07 14:08:00,
2013-04-07 10:13:00,41.3,15.7,30.08,West,271,1.0,11.0,35,0.00,,OVC065,0.00,VWS V12.08,2013-04-07 14:13:00,
2013-04-07 10:18:00,41.8,15.5,30.08,SW,227,12.0,12.0,34,0.00,,OVC065,0.00,VWS V12.08,2013-04-07 14:18:00,
2013-04-07 10:23:00,42.2,16.5,30.08,WNW,299,2.0,10.0,35,0.00,,OVC065,0.00,VWS V12.08,2013-04-07 14:23:00,
2013-04-07 10:28:00,42.8,16.4,30.08,WSW,246,10.0,10.0,34,0.00,,OVC065,0.00,VWS V12.08,2013-04-07 14:28:00,
2013-04-07 10:33:00,43.1,16.7,30.08,WNW,301,6.0,12.0,34,0.00,,OVC065,0.00,VWS V12.08,2013-04-07 14:33:00,
2013-04-07 10:38:00,43.1,15.3,30.08,West,265,13.0,22.0,32,0.00,,OVC065,0.00,VWS V12.08,2013-04-07 14:38:00,
2013-04-07 10:43:00,43.1,14.5,30.08,NW,309,6.0,18.0,31,0.00,,OVC048,0.00,VWS V12.08,2013-04-07 14:43:00,
2013-04-07 10:48:00,43.2,16.1,30.08,WSW,246,6.0,11.0,33,0.00,,OVC048,0.00,VWS V12.08,2013-04-07 14:48:00,
2013-04-07 10:54:00,43.2,15.4,30.08,West,272,6.0,16.0,32,0.00,,OVC048,0.00,VWS V12.08,2013-04-07 14:54:00,
2013-04-07 10:59:00,43.7,16.5,30.07,SW,216,10.0,10.0,33,0.00,,OVC048,0.00,VWS V12.08,2013-04-07 14:59:00,
2013-04-07 11:05:00,43.7,15.8,30.07,SW,230,6.0,6.0,32,0.00,,OVC048,0.00,VWS V12.08,2013-04-07 15:05:00,
2013-04-07 11:10:00,42.9,15.1,30.07,NNE,14,4.0,13.0,32,0.00,,OVC048,0.00,VWS V12.08,2013-04-07 15:10:00,
2013-04-07 11:15:00,42.6,16.2,30.07,West,265,6.0,10.0,34,0.00,,OVC048,0.00,VWS V12.08,2013-04-07 15:15:00,
2013-04-07 11:20:00,42.2,15.9,30.07,West,281,8.0,22.0,34,0.00,,OVC048,0.00,VWS V12.08,2013-04-07 15:20:00,
2013-04-07 11:25:00,41.9,16.3,30.07,SW,224,3.0,20.0,35,0.00,,OVC048,0.00,VWS V12.08,2013-04-07 15:25:00,
2013-04-07 11:30:00,41.9,17.5,30.06,West,277,7.0,16.0,37,0.00,,OVC048,0.00,VWS V12.08,2013-04-07 15:30:00,
2013-04-07 11:35:00,41.9,17.5,30.06,WNW,288,3.0,7.0,37,0.00,,OVC048,0.00,VWS V12.08,2013-04-07 15:35:00,
2013-04-07 11:40:00,41.9,17.5,30.06,SW,233,9.0,12.0,37,0.00,,OVC048,0.00,VWS V12.08,2013-04-07 15:40:00,
2013-04-07 11:45:00,42.1,17.7,30.05,West,277,3.0,14.0,37,0.00,,BKN090,0.00,VWS V12.08,2013-04-07 15:45:00,
2013-04-07 11:50:00,41.9,17.5,30.05,SW,226,22.0,27.0,37,0.00,,BKN090,0.00,VWS V12.08,2013-04-07 15:50:00,
2013-04-07 11:55:00,41.9,17.5,30.05,SW,233,12.0,12.0,37,0.00,,BKN090,0.00,VWS V12.08,2013-04-07 15:55:00,
2013-04-07 12:01:00,41.8,17.5,30.04,West,264,1.0,15.0,37,0.00,,BKN090,0.00,VWS V12.08,2013-04-07 16:01:00,
2013-04-07 12:06:00,41.8,17.5,30.04,SSW,205,20.0,20.0,37,0.00,,BKN090,0.00,VWS V12.08,2013-04-07 16:06:00,
2013-04-07 12:12:00,41.6,17.9,30.04,WSW,258,10.0,13.0,38,0.00,,BKN090,0.00,VWS V12.08,2013-04-07 16:12:00,
2013-04-07 12:17:00,41.6,18.5,30.03,WSW,244,0.0,2.0,39,0.00,,BKN090,0.00,VWS V12.08,2013-04-07 16:17:00,
2013-04-07 12:22:00,41.9,18.2,30.03,West,271,7.0,14.0,38,0.00,,BKN090,0.00,VWS V12.08,2013-04-07 16:22:00,
2013-04-07 12:27:00,42.3,18.5,30.03,WSW,258,14.0,16.0,38,0.00,,BKN090,0.00,VWS V12.08,2013-04-07 16:27:00,
2013-04-07 12:32:00,42.8,19.0,30.01,West,264,2.0,12.0,38,0.00,,BKN090,0.00,VWS V12.08,2013-04-07 16:32:00,
2013-04-07 12:37:00,42.9,18.4,30.01,WSW,241,5.0,13.0,37,0.00,,BKN090,0.00,VWS V12.08,2013-04-07 16:37:00,
2013-04-07 12:42:00,43.1,18.6,30.01,WNW,302,5.0,14.0,37,0.00,,OVC090,0.00,VWS V12.08,2013-04-07 16:42:00,
2013-04-07 12:47:00,43.4,18.9,30.00,West,261,11.0,16.0,37,0.00,,OVC090,0.00,VWS V12.08,2013-04-07 16:47:00,
2013-04-07 12:52:00,43.5,19.0,30.00,WSW,237,12.0,13.0,37,0.00,,OVC090,0.00,VWS V12.08,2013-04-07 16:52:00,
2013-04-07 12:57:00,43.5,19.0,30.00,SW,236,10.0,13.0,37,0.00,,OVC090,0.00,VWS V12.08,2013-04-07 16:57:00,
2013-04-07 13:02:00,43.5,19.0,30.00,WSW,258,6.0,9.0,37,0.00,,OVC090,0.00,VWS V12.08,2013-04-07 17:02:00,
2013-04-07 13:07:00,43.5,18.3,30.00,WSW,240,5.0,18.0,36,0.00,,OVC090,0.00,VWS V12.08,2013-04-07 17:07:00,
2013-04-07 13:12:00,43.4,18.2,30.00,West,265,6.0,12.0,36,0.00,,OVC090,0.00,VWS V12.08,2013-04-07 17:12:00,
2013-04-07 13:17:00,44.0,18.8,29.99,SW,215,12.0,12.0,36,0.00,,OVC090,0.00,VWS V12.08,2013-04-07 17:17:00,
2013-04-07 13:23:00,45.4,18.0,29.99,SW,232,7.0,16.0,33,0.00,,OVC090,0.00,VWS V12.08,2013-04-07 17:23:00,
2013-04-07 13:28:00,46.3,18.1,29.97,SW,216,12.0,19.0,32,0.00,,OVC090,0.00,VWS V12.08,2013-04-07 17:28:00,
2013-04-07 13:33:00,47.4,18.3,29.97,WSW,244,2.0,11.0,31,0.00,,OVC090,0.00,VWS V12.08,2013-04-07 17:33:00,
2013-04-07 13:38:00,47.2,18.1,29.97,SW,223,12.0,12.0,31,0.00,,OVC090,0.00,VWS V12.08,2013-04-07 17:38:00,
2013-04-07 13:43:00,47.4,18.3,29.97,South,184,9.0,13.0,31,0.00,,BKN100,0.00,VWS V12.08,2013-04-07 17:43:00,
2013-04-07 13:48:00,48.2,18.2,29.97,SW,227,4.0,11.0,30,0.00,,BKN100,0.00,VWS V12.08,2013-04-07 17:48:00,
2013-04-07 13:53:00,49.4,16.8,29.97,South,188,11.0,14.0,27,0.00,,BKN100,0.00,VWS V12.08,2013-04-07 17:53:00,
2013-04-07 13:58:00,49.3,18.4,29.95,WSW,248,6.0,6.0,29,0.00,,BKN100,0.00,VWS V12.08,2013-04-07 17:58:00,
2013-04-07 14:03:00,49.7,17.9,29.95,SW,226,7.0,7.0,28,0.00,,BKN100,0.00,VWS V12.08,2013-04-07 18:03:00,
2013-04-07 14:08:00,50.5,18.6,29.95,SW,233,4.0,11.0,28,0.00,,BKN100,0.00,VWS V12.08,2013-04-07 18:08:00,
2013-04-07 14:13:00,50.8,18.0,29.94,SW,219,11.0,11.0,27,0.00,,BKN100,0.00,VWS V12.08,2013-04-07 18:13:00,
2013-04-07 14:18:00,50.9,18.1,29.94,West,260,10.0,16.0,27,0.00,,BKN100,0.00,VWS V12.08,2013-04-07 18:18:00,
2013-04-07 14:24:00,50.9,19.0,29.94,SW,223,11.0,14.0,28,0.00,,FEW110,0.00,VWS V12.08,2013-04-07 18:24:00,
2013-04-07 14:30:00,50.6,18.7,29.92,South,185,6.0,13.0,28,0.00,,FEW110,0.00,VWS V12.08,2013-04-07 18:30:00,
2013-04-07 14:35:00,51.1,18.3,29.92,SSE,155,2.0,12.0,27,0.00,,FEW110,0.00,VWS V12.08,2013-04-07 18:35:00,
2013-04-07 14:40:00,51.3,19.3,29.92,SW,230,8.0,14.0,28,0.00,,FEW110,0.00,VWS V12.08,2013-04-07 18:40:00,
2013-04-07 14:45:00,51.3,19.3,29.91,West,280,11.0,16.0,28,0.00,,FEW110,0.00,VWS V12.08,2013-04-07 18:45:00,
2013-04-07 14:50:00,51.5,19.5,29.91,WSW,254,7.0,19.0,28,0.00,,FEW110,0.00,VWS V12.08,2013-04-07 18:50:00,
2013-04-07 14:55:00,51.3,19.3,29.91,West,268,3.0,10.0,28,0.00,,FEW110,0.00,VWS V12.08,2013-04-07 18:55:00,
2013-04-07 15:00:00,51.1,18.3,29.89,WSW,241,11.0,13.0,27,0.00,,FEW110,0.00,VWS V12.08,2013-04-07 19:00:00,
2013-04-07 15:05:00,51.3,19.3,29.89,SW,227,10.0,17.0,28,0.00,,CLR,0.00,VWS V12.08,2013-04-07 19:05:00,
2013-04-07 15:10:00,51.6,18.7,29.89,West,274,14.0,14.0,27,0.00,,CLR,0.00,VWS V12.08,2013-04-07 19:10:00,
2013-04-07 15:15:00,51.6,18.7,29.87,SW,233,3.0,10.0,27,0.00,,CLR,0.00,VWS V12.08,2013-04-07 19:15:00,
2013-04-07 15:20:00,51.8,18.9,29.87,WSW,240,9.0,16.0,27,0.00,,CLR,0.00,VWS V12.08,2013-04-07 19:20:00,
2013-04-07 15:25:00,52.1,19.2,29.87,WSW,251,2.0,20.0,27,0.00,,CLR,0.00,VWS V12.08,2013-04-07 19:25:00,
2013-04-07 15:30:00,52.5,19.5,29.84,WSW,256,6.0,13.0,27,0.00,,CLR,0.00,VWS V12.08,2013-04-07 19:30:00,
2013-04-07 15:35:00,52.5,19.5,29.84,SSE,147,5.0,11.0,27,0.00,,CLR,0.00,VWS V12.08,2013-04-07 19:35:00,
2013-04-07 15:40:00,52.8,19.8,29.84,WSW,251,11.0,11.0,27,0.00,,CLR,0.00,VWS V12.08,2013-04-07 19:40:00,
2013-04-07 15:45:00,53.3,20.2,29.86,WSW,254,11.0,11.0,27,0.00,,CLR,0.00,VWS V12.08,2013-04-07 19:45:00,
2013-04-07 15:50:00,53.4,20.3,29.86,WSW,257,11.0,15.0,27,0.00,,CLR,0.00,VWS V12.08,2013-04-07 19:50:00,
2013-04-07 15:55:00,53.4,21.1,29.86,WNW,299,8.0,19.0,28,0.00,,CLR,0.00,VWS V12.08,2013-04-07 19:55:00,
2013-04-07 16:00:00,53.4,19.4,29.86,SW,229,10.0,20.0,26,0.00,,CLR,0.00,VWS V12.08,2013-04-07 20:00:00,
2013-04-07 16:05:00,53.4,20.3,29.86,WSW,243,8.0,19.0,27,0.00,,CLR,0.00,VWS V12.08,2013-04-07 20:05:00,
2013-04-07 16:10:00,53.4,20.3,29.86,West,274,10.0,18.0,27,0.00,,CLR,0.00,VWS V12.08,2013-04-07 20:10:00,
2013-04-07 16:15:00,53.1,20.0,29.86,WSW,244,9.0,15.0,27,0.00,,CLR,0.00,VWS V12.08,2013-04-07 20:15:00,
2013-04-07 16:21:00,52.8,19.8,29.86,SW,229,10.0,10.0,27,0.00,,CLR,0.00,VWS V12.08,2013-04-07 20:21:00,
2013-04-07 16:26:00,52.8,20.6,29.86,WSW,247,8.0,18.0,28,0.00,,CLR,0.00,VWS V12.08,2013-04-07 20:26:00,
2013-04-07 16:31:00,52.8,19.8,29.88,WNW,284,5.0,10.0,27,0.00,,CLR,0.00,VWS V12.08,2013-04-07 20:31:00,
2013-04-07 16:36:00,52.8,20.6,29.88,NW,312,8.0,8.0,28,0.00,,CLR,0.00,VWS V12.08,2013-04-07 20:36:00,
2013-04-07 16:41:00,53.0,20.8,29.88,SW,226,7.0,14.0,28,0.00,,CLR,0.00,VWS V12.08,2013-04-07 20:41:00,
2013-04-07 16:46:00,52.8,21.4,29.89,South,178,17.0,17.0,29,0.00,,CLR,0.00,VWS V12.08,2013-04-07 20:46:00,
2013-04-07 16:52:00,52.8,22.2,29.89,SSW,203,12.0,17.0,30,0.00,,CLR,0.00,VWS V12.08,2013-04-07 20:52:00,
2013-04-07 16:57:00,52.7,22.9,29.89,WSW,258,7.0,12.0,31,0.00,,CLR,0.00,VWS V12.08,2013-04-07 20:57:00,
2013-04-07 17:02:00,52.5,22.8,29.88,WSW,251,4.0,19.0,31,0.00,,CLR,0.00,VWS V12.08,2013-04-07 21:02:00,
2013-04-07 17:08:00,52.4,23.4,29.88,West,265,7.0,14.0,32,0.00,,CLR,0.00,VWS V12.08,2013-04-07 21:08:00,
2013-04-07 17:13:00,52.2,23.2,29.89,WSW,241,3.0,15.0,32,0.00,,CLR,0.00,VWS V12.08,2013-04-07 21:13:00,
2013-04-07 17:18:00,52.1,23.9,29.89,WNW,285,2.0,12.0,33,0.00,,CLR,0.00,VWS V12.08,2013-04-07 21:18:00,
2013-04-07 17:23:00,52.1,23.9,29.89,SW,227,12.0,12.0,33,0.00,,CLR,0.00,VWS V12.08,2013-04-07 21:23:00,
2013-04-07 17:28:00,51.9,23.7,29.88,SSW,205,5.0,6.0,33,0.00,,CLR,0.00,VWS V12.08,2013-04-07 21:28:00,
2013-04-07 17:33:00,51.9,23.7,29.88,SW,229,3.0,10.0,33,0.00,,CLR,0.00,VWS V12.08,2013-04-07 21:33:00,
2013-04-07 17:38:00,51.9,24.4,29.88,West,264,0.0,5.0,34,0.00,,CLR,0.00,VWS V12.08,2013-04-07 21:38:00,
2013-04-07 17:43:00,51.9,24.4,29.87,WSW,254,2.0,2.0,34,0.00,,OVC110,0.00,VWS V12.08,2013-04-07 21:43:00,
2013-04-07 17:48:00,52.1,24.6,29.87,SSW,206,5.0,12.0,34,0.00,,OVC110,0.00,VWS V12.08,2013-04-07 21:48:00,
2013-04-07 17:53:00,52.1,25.3,29.87,SW,224,3.0,8.0,35,0.00,,OVC110,0.00,VWS V12.08,2013-04-07 21:53:00,
2013-04-07 17:58:00,52.1,25.3,29.87,SW,222,2.0,4.0,35,0.00,,OVC110,0.00,VWS V12.08,2013-04-07 21:58:00,
2013-04-07 18:04:00,52.1,25.3,29.87,WSW,258,0.0,0.0,35,0.00,,OVC110,0.00,VWS V12.08,2013-04-07 22:04:00,
2013-04-07 18:09:00,51.9,25.8,29.87,WSW,248,3.0,3.0,36,0.00,,OVC110,0.00,VWS V12.08,2013-04-07 22:09:00,
2013-04-07 18:15:00,52.1,26.6,29.88,SSE,168,2.0,3.0,37,0.00,,OVC110,0.00,VWS V12.08,2013-04-07 22:15:00,
2013-04-07 18:20:00,52.2,27.4,29.88,WSW,253,2.0,5.0,38,0.00,,OVC110,0.00,VWS V12.08,2013-04-07 22:20:00,
2013-04-07 18:25:00,52.2,27.4,29.88,West,268,0.0,6.0,38,0.00,,OVC110,0.00,VWS V12.08,2013-04-07 22:25:00,
2013-04-07 18:30:00,52.2,28.0,29.86,WSW,239,4.0,6.0,39,0.00,,OVC110,0.00,VWS V12.08,2013-04-07 22:30:00,
2013-04-07 18:35:00,52.2,28.0,29.86,SW,217,2.0,11.0,39,0.00,,OVC110,0.00,VWS V12.08,2013-04-07 22:35:00,
2013-04-07 18:40:00,52.2,28.0,29.86,WSW,243,7.0,11.0,39,0.00,,OVC110,0.00,VWS V12.08,2013-04-07 22:40:00,
2013-04-07 18:45:00,52.2,28.0,29.86,WSW,256,2.0,10.0,39,0.00,,OVC090,0.00,VWS V12.08,2013-04-07 22:45:00,
2013-04-07 18:50:00,52.1,28.5,29.86,SW,232,7.0,12.0,40,0.00,,OVC090,0.00,VWS V12.08,2013-04-07 22:50:00,
2013-04-07 18:55:00,52.1,28.5,29.86,WSW,244,3.0,6.0,40,0.00,,OVC090,0.00,VWS V12.08,2013-04-07 22:55:00,
2013-04-07 19:00:00,51.9,28.4,29.85,SSE,162,1.0,8.0,40,0.00,,OVC090,0.00,VWS V12.08,2013-04-07 23:00:00,
2013-04-07 19:05:00,51.8,28.9,29.85,WSW,247,4.0,6.0,41,0.00,,OVC090,0.00,VWS V12.08,2013-04-07 23:05:00,
2013-04-07 19:10:00,51.6,28.7,29.85,WSW,244,3.0,8.0,41,0.00,,OVC090,0.00,VWS V12.08,2013-04-07 23:10:00,
2013-04-07 19:15:00,51.3,28.4,29.86,West,261,3.0,6.0,41,0.00,,OVC090,0.00,VWS V12.08,2013-04-07 23:15:00,
2013-04-07 19:20:00,51.2,28.9,29.86,WSW,239,5.0,7.0,42,0.00,,OVC090,0.00,VWS V12.08,2013-04-07 23:20:00,
2013-04-07 19:25:00,51.1,28.8,29.86,WSW,257,6.0,7.0,42,0.00,,OVC090,0.00,VWS V12.08,2013-04-07 23:25:00,
2013-04-07 19:30:00,50.9,28.6,29.85,SW,227,7.0,13.0,42,0.00,,OVC090,0.00,VWS V12.08,2013-04-07 23:30:00,
2013-04-07 19:35:00,50.8,29.1,29.85,WSW,244,5.0,8.0,43,0.00,,OVC090,0.00,VWS V12.08,2013-04-07 23:35:00,
2013-04-07 19:40:00,50.6,29.0,29.85,SW,234,2.0,10.0,43,0.00,,CLR,0.00,VWS V12.08,2013-04-07 23:40:00,
2013-04-07 19:45:00,50.5,29.4,29.86,West,260,0.0,11.0,44,0.00,,CLR,0.00,VWS V12.08,2013-04-07 23:45:00,
2013-04-07 19:50:00,50.3,29.8,29.86,WSW,258,4.0,6.0,45,0.00,,CLR,0.00,VWS V12.08,2013-04-07 23:50:00,
2013-04-07 19:55:00,50.3,29.8,29.86,SW,233,5.0,7.0,45,0.00,,CLR,0.00,VWS V12.08,2013-04-07 23:55:00,
2013-04-07 20:00:00,49.9,30.0,29.86,WSW,239,1.0,6.0,46,0.00,,CLR,0.00,VWS V12.08,2013-04-08 00:00:00,
2013-04-07 20:05:00,49.6,30.2,29.86,WSW,244,3.0,3.0,47,0.00,,CLR,0.00,VWS V12.08,2013-04-08 00:05:00,
2013-04-07 20:10:00,49.3,29.9,29.86,SW,216,8.0,8.0,47,0.00,,CLR,0.00,VWS V12.08,2013-04-08 00:10:00,
2013-04-07 20:16:00,49.1,30.3,29.85,WSW,244,1.0,8.0,48,0.00,,CLR,0.00,VWS V12.08,2013-04-08 00:16:00,
2013-04-07 20:21:00,49.4,30.5,29.85,SW,236,5.0,12.0,48,0.00,,SCT090,0.00,VWS V12.08,2013-04-08 00:21:00,
2013-04-07 20:26:00,49.6,31.2,29.85,SSW,196,8.0,14.0,49,0.00,,SCT090,0.00,VWS V12.08,2013-04-08 00:26:00,
2013-04-07 20:31:00,49.4,31.1,29.85,SW,222,5.0,7.0,49,0.00,,SCT090,0.00,VWS V12.08,2013-04-08 00:31:00,
2013-04-07 20:36:00,49.3,31.5,29.85,SW,220,2.0,3.0,50,0.00,,SCT090,0.00,VWS V12.08,2013-04-08 00:36:00,
2013-04-07 20:41:00,49.0,31.7,29.85,West,267,6.0,6.0,51,0.00,,SCT090,0.00,VWS V12.08,2013-04-08 00:41:00,
2013-04-07 20:46:00,48.7,31.4,29.86,SW,222,0.0,11.0,51,0.00,,SCT090,0.00,VWS V12.08,2013-04-08 00:46:00,
2013-04-07 20:51:00,48.5,31.7,29.86,West,274,6.0,10.0,52,0.00,,SCT090,0.00,VWS V12.08,2013-04-08 00:51:00,
2013-04-07 20:56:00,48.7,31.9,29.86,WSW,243,10.0,10.0,52,0.00,,SCT090,0.00,VWS V12.08,2013-04-08 00:56:00,
2013-04-07 21:01:00,48.7,31.9,29.86,SW,232,5.0,8.0,52,0.00,,SCT090,0.00,VWS V12.08,2013-04-08 01:01:00,
2013-04-07 21:07:00,48.5,32.2,29.86,WSW,240,4.0,19.0,53,0.00,,SCT090,0.00,VWS V12.08,2013-04-08 01:07:00,
2013-04-07 21:12:00,48.5,32.2,29.86,WNW,285,8.0,8.0,53,0.00,,SCT090,0.00,VWS V12.08,2013-04-08 01:12:00,
2013-04-07 21:17:00,48.5,32.2,29.86,WNW,301,7.0,8.0,53,0.00,,SCT090,0.00,VWS V12.08,2013-04-08 01:17:00,
2013-04-07 21:22:00,48.5,32.2,29.86,SW,223,5.0,11.0,53,0.00,,SCT090,0.00,VWS V12.08,2013-04-08 01:22:00,
2013-04-07 21:27:00,48.4,32.1,29.86,WNW,288,4.0,7.0,53,0.00,,SCT090,0.00,VWS V12.08,2013-04-08 01:27:00,
2013-04-07 21:32:00,48.2,32.3,29.86,West,265,4.0,11.0,54,0.00,,SCT090,0.00,VWS V12.08,2013-04-08 01:32:00,
2013-04-07 21:37:00,48.1,32.3,29.86,WNW,302,7.0,11.0,54,0.00,,SCT090,0.00,VWS V12.08,2013-04-08 01:37:00,
2013-04-07 21:43:00,47.9,32.5,29.86,West,264,6.0,12.0,55,0.00,,BKN100,0.00,VWS V12.08,2013-04-08 01:43:00,
2013-04-07 21:48:00,47.8,32.4,29.86,WNW,299,3.0,7.0,55,0.00,,BKN100,0.00,VWS V12.08,2013-04-08 01:48:00,
2013-04-07 21:53:00,47.6,32.7,29.86,SW,236,2.0,7.0,56,0.00,,BKN100,0.00,VWS V12.08,2013-04-08 01:53:00,
2013-04-07 21:58:00,47.6,32.2,29.86,WNW,294,3.0,10.0,55,0.00,,BKN100,0.00,VWS V12.08,2013-04-08 01:58:00,
2013-04-07 22:03:00,47.6,32.2,29.86,WNW,284,4.0,11.0,55,0.00,,BKN100,0.00,VWS V12.08,2013-04-08 02:03:00,
2013-04-07 22:08:00,47.6,32.2,29.86,WNW,295,5.0,7.0,55,0.00,,BKN100,0.00,VWS V12.08,2013-04-08 02:08:00,
2013-04-07 22:13:00,47.5,32.6,29.86,WSW,246,1.0,8.0,56,0.00,,BKN100,0.00,VWS V12.08,2013-04-08 02:13:00,
2013-04-07 22:18:00,47.5,32.6,29.86,SW,230,8.0,14.0,56,0.00,,BKN100,0.00,VWS V12.08,2013-04-08 02:18:00,
2013-04-07 22:23:00,47.5,32.6,29.86,West,268,7.0,14.0,56,0.00,,BKN100,0.00,VWS V12.08,2013-04-08 02:23:00,
2013-04-07 22:28:00,47.5,32.6,29.85,West,261,2.0,12.0,56,0.00,,BKN100,0.00,VWS V12.08,2013-04-08 02:28:00,
2013-04-07 22:33:00,47.4,33.0,29.85,SW,224,5.0,9.0,57,0.00,,BKN100,0.00,VWS V12.08,2013-04-08 02:33:00,
2013-04-07 22:40:00,47.4,33.0,29.85,West,263,2.0,13.0,57,0.00,,BKN100,0.00,VWS V12.08,2013-04-08 02:40:00,
2013-04-07 22:45:00,47.4,33.4,29.86,WSW,257,3.0,7.0,58,0.00,,BKN100,0.00,VWS V12.08,2013-04-08 02:45:00,
2013-04-07 22:50:00,47.2,33.2,29.86,WSW,246,3.0,10.0,58,0.00,,BKN100,0.00,VWS V12.08,2013-04-08 02:50:00,
2013-04-07 22:55:00,47.2,33.2,29.86,West,270,8.0,10.0,58,0.00,,BKN100,0.00,VWS V12.08,2013-04-08 02:55:00,
2013-04-07 23:00:00,47.2,33.2,29.86,NW,304,6.0,8.0,58,0.00,,BKN100,0.00,VWS V12.08,2013-04-08 03:00:00,
2013-04-07 23:05:00,47.2,33.6,29.86,WNW,296,2.0,6.0,59,0.00,,BKN100,0.00,VWS V12.08,2013-04-08 03:05:00,
2013-04-07 23:10:00,47.2,33.6,29.86,West,280,1.0,7.0,59,0.00,,BKN100,0.00,VWS V12.08,2013-04-08 03:10:00,
2013-04-07 23:15:00,47.1,33.9,29.86,West,281,2.0,6.0,60,0.00,,BKN100,0.00,VWS V12.08,2013-04-08 03:15:00,
2013-04-07 23:20:00,47.1,33.9,29.86,WNW,301,5.0,5.0,60,0.00,,BKN100,0.00,VWS V12.08,2013-04-08 03:20:00,
2013-04-07 23:27:00,46.9,33.8,29.86,WNW,296,2.0,14.0,60,0.00,,BKN100,0.00,VWS V12.08,2013-04-08 03:27:00,
2013-04-07 23:32:00,46.9,34.2,29.86,WNW,285,2.0,6.0,61,0.00,,BKN100,0.00,VWS V12.08,2013-04-08 03:32:00,
2013-04-07 23:37:00,46.9,34.2,29.86,West,274,6.0,6.0,61,0.00,,BKN100,0.00,VWS V12.08,2013-04-08 03:37:00,
2013-04-07 23:42:00,46.9,34.2,29.86,WNW,289,5.0,7.0,61,0.00,,OVC090,0.00,VWS V12.08,2013-04-08 03:42:00,
2013-04-07 23:47:00,46.8,34.5,29.86,WNW,295,1.0,6.0,62,0.00,,OVC090,0.00,VWS V12.08,2013-04-08 03:47:00,
2013-04-07 23:52:00,46.9,34.6,29.86,NW,305,3.0,3.0,62,0.00,,OVC090,0.00,VWS V12.08,2013-04-08 03:52:00,
2013-04-07 23:57:00,46.8,34.5,29.86,West,261,5.0,7.0,62,0.00,,OVC090,0.00,VWS V12.08,2013-04-08 03:57:00,